Dewpoint
70 69 68 70 72 71 71 72 74 73 72 73 72 73 72 71 70 69 66 62 60 58 58 56 56 57 57 58 56 55 53 51 48 48 49 50 48 51 51 51 54 51 50
69 69 71 72 71 71 70 71 73 73 73 73 74 72 72 71 70 69 67 62 58 58 58 56 54 56 57 56 55 54 51 50 47 45 48 45 47 51 49 50 50 49 51
70 71 71 72 71 71 71 72 73 73 73 74 74 72 72 70 70 69 67 58 57 58 56 55 54 55 54 52 50 50 48 47 47 48 44 46 46 50 46 50 49 48 48
71 71 71 71 71 71 71 72 73 74 73 73 74 73 71 70 70 68 61 58 57 56 55 54 54 52 50 48 48 45 44 46 46 45 44 44 46 48 46 49 47 46 48
70 70 71 70 71 71 72 73 73 73 73 73 74 72 71 70 68 66 61 59 58 56 56 54 52 51 53 50 46 45 46 46 47 46 45 45 45 45 42 48 47 47 47
70 70 70 72 71 71 72 72 73 73 73 75 73 72 70 70 65 64 62 60 59 57 55 54 51 55 53 54 54 55 50 47 45 47 46 45 46 44 47 47 47 47 46
70 70 71 72 72 72 72 72 72 73 73 74 73 71 70 67 62 62 63 60 59 58 57 56 54 52 53 50 48 49 51 56 55 47 46 47 47 44 45 46 46 47 47
69 70 71 72 71 72 72 72 72 73 73 74 72 70 68 61 58 58 60 60 57 57 58 55 54 49 44 39 39 44 48 50 42 53 51 50 48 45 47 50 49 48 48
68 70 71 72 72 72 72 71 73 72 73 74 72 69 67 60 55 55 55 58 57 56 56 54 54 46 45 45 40 44 45 49 47 48 50 52 53 54 54 48 45 46 46
67 69 70 71 72 72 72 72 72 73 73 73 70 69 65 59 54 54 54 58 57 57 56 50 55 46 46 43 38 42 45 44 40 38 41 45 49 50 56 49 46 46 47
67 68 71 71 71 72 72 72 72 73 74 72 69 68 65 58 52 52 52 57 57 56 57 50 43 48 45 43 43 39 44 43 39 40 43 46 44 42 44 48 51 50 48
67 70 70 72 72 73 73 73 73 74 74 70 68 66 64 58 52 51 51 54 52 55 54 54 47 46 43 44 44 44 46 47 41 43 44 42 42 42 44 46 47 44 46
69 68 70 71 73 72 73 74 74 74 72 69 66 65 63 60 55 50 51 51 51 47 52 50 47 43 43 44 46 46 47 42 43 41 43 41 43 45 43 44 42 42 45
70 70 70 72 72 73 74 74 74 73 70 69 66 65 63 59 55 51 49 52 51 49 52 45 43 42 43 41 46 46 45 43 44 43 42 44 44 43 42 43 41 43 42
69 71 72 72 72 73 73 74 74 73 70 68 66 65 62 58 55 50 46 50 50 49 45 41 41 41 39 41 43 46 48 46 45 42 42 44 42 43 42 42 43 42 38
72 71 71 72 72 73 73 68 54 61 56 54 57 61 61 56 48 44 44 45 46 48 47 44 39 42 43 45 48 45 43 46 42 41 44 43 42 42 41 41 42 41 38
72 73 72 71 72 73 73 72 70 56 49 51 51 53 53 51 45 42 43 43 44 44 43 46 46 46 48 47 42 40 42 43 43 45 42 44 42 41 41 42 40 40 38
74 65 73 72 72 74 73 71 70 66 63 59 46 51 46 44 43 41 41 43 43 43 43 44 43 46 47 44 41 42 43 44 41 41 42 43 41 41 41 39 38 39 38
75 73 72 73 73 72 73 70 69 65 65 57 47 44 43 42 41 41 40 41 43 43 42 39 42 49 46 43 44 45 42 43 39 39 44 41 41 42 37 39 39 41 38
73 69 69 72 72 71 71 70 68 64 63 58 57 51 43 43 44 43 43 42 42 43 40 39 42 48 46 45 45 46 43 44 41 42 40 40 42 38 37 37 38 37 37
74 73 67 71 71 71 70 68 65 64 63 57 55 47 42 47 45 43 43 44 42 40 41 38 44 47 45 45 44 42 41 39 41 39 38 39 41 33 38 35 37 38 36
72 71 70 69 69 70 69 67 64 64 62 55 49 42 41 45 43 43 46 43 46 46 49 45 45 43 41 42 44 42 40 39 39 38 39 39 35 35 36 33 36 36 35
70 70 69 69 68 65 66 66 64 63 60 56 49 44 43 46 44 45 45 44 44 49 50 46 43 41 42 44 42 38 37 39 39 39 41 39 33 34 37 33 34 34 33
67 66 67 67 66 67 65 65 63 59 61 57 47 46 45 47 44 45 47 45 46 44 47 44 41 37 38 38 37 40 41 42 41 42 41 40 33 33 33 34 34 34 35
66 67 68 67 65 65 64 65 63 63 60 52 50 49 48 49 44 43 50 42 43 46 46 43 39 37 36 35 35 34 35 32 36 38 39 39 32 30 31 35 34 35 34
65 65 66 67 67 67 65 65 64 63 61 53 55 54 55 52 46 42 43 42 45 44 42 42 38 39 37 34 33 32 32 31 32 32 38 39 32 31 32 33 34 34 35
Lifted_Index
-1 -1 -1 -1 -2 -2 -3 -4 -5 -6 -7 -7 -8 -8 -8 -7 -5 -5 -4 -3 -1 2 4 5 6 6 6 6 7 8 9 10 11 11 11 10 10 8 8 7 6 6 5
-1 -1 -1 -2 -2 -3 -3 -4 -5 -6 -7 -8 -8 -8 -8 -6 -5 -4 -4 -4 -2 2 4 5 6 7 7 7 8 9 10 11 12 12 12 11 10 9 8 7 7 7 6
-1 -2 -2 -3 -3 -3 -3 -4 -5 -6 -7 -8 -9 -9 -8 -6 -5 -4 -4 -4 -2 1 4 5 6 7 8 9 10 11 12 13 13 13 12 12 11 10 9 8 8 8 7
-2 -2 -3 -3 -3 -3 -3 -4 -6 -7 -8 -9 -9 -9 -8 -6 -5 -4 -4 -4 -3 1 4 6 7 8 9 10 12 13 14 14 13 13 12 12 11 11 11 9 9 9 8
-2 -2 -3 -3 -3 -3 -4 -5 -6 -8 -8 -9 -9 -9 -8 -7 -5 -5 -5 -5 -4 -0 3 5 7 8 9 10 12 13 14 13 13 12 12 12 12 12 11 10 9 9 8
-2 -2 -3 -3 -3 -4 -4 -5 -6 -8 -8 -9 -9 -9 -8 -7 -5 -5 -5 -5 -4 -1 3 5 6 7 8 9 11 12 12 12 11 11 11 11 12 11 11 10 10 9 9
-2 -2 -3 -3 -4 -4 -5 -5 -6 -7 -8 -9 -9 -9 -8 -7 -5 -5 -5 -5 -5 -2 2 4 5 6 7 8 11 12 12 11 11 11 11 11 11 10 10 10 9 9 9
-2 -3 -3 -4 -4 -5 -5 -5 -6 -7 -8 -8 -9 -8 -8 -7 -5 -4 -5 -5 -5 -2 2 4 5 6 7 9 12 13 12 11 11 12 11 11 10 10 9 9 9 9 9
-2 -3 -4 -4 -5 -5 -5 -6 -7 -7 -8 -8 -8 -8 -8 -7 -5 -4 -4 -5 -5 -3 2 4 5 6 8 10 13 13 13 12 13 12 12 11 10 9 8 8 9 9 9
-3 -3 -4 -5 -5 -6 -6 -6 -7 -8 -8 -8 -8 -8 -8 -7 -5 -4 -4 -5 -5 -3 2 5 6 7 9 11 13 14 13 13 13 12 12 11 10 9 9 9 9 9 9
-3 -4 -4 -5 -6 -6 -7 -7 -7 -8 -8 -8 -8 -8 -7 -7 -5 -4 -4 -4 -5 -3 2 5 6 7 9 12 13 14 13 13 12 12 12 11 10 10 10 9 9 9 8
-4 -4 -5 -6 -7 -7 -7 -7 -8 -8 -8 -8 -7 -7 -7 -7 -6 -4 -3 -4 -4 -2 2 5 6 7 9 11 13 13 13 12 12 12 12 11 11 10 10 9 9 9 8
-5 -5 -6 -6 -7 -7 -7 -8 -8 -8 -8 -7 -6 -7 -7 -6 -5 -4 -3 -4 -4 -1 3 6 7 8 10 12 12 12 12 12 12 12 12 11 11 10 10 10 9 9 8
-6 -6 -6 -7 -7 -7 -8 -8 -8 -8 -7 -6 -6 -6 -6 -6 -5 -4 -3 -4 -4 -0 4 7 8 9 10 11 11 11 11 12 12 12 12 12 11 11 11 10 9 9 9
-7 -7 -7 -7 -8 -8 -8 -8 -8 -8 -7 -6 -5 -5 -5 -5 -4 -4 -3 -4 -4 -1 5 8 10 10 10 10 10 10 11 11 12 12 12 12 11 11 11 10 9 10 10
-8 -8 -8 -8 -8 -8 -8 -8 -8 -8 -7 -7 -6 -5 -5 -5 -4 -4 -4 -4 -4 -1 4 9 11 10 9 9 9 10 11 11 12 12 12 12 12 12 11 10 10 10 10
-9 -9 -9 -9 -9 -9 -9 -9 -8 -8 -8 -7 -6 -6 -5 -5 -4 -3 -4 -4 -3 -1 4 9 11 10 9 9 9 10 11 11 12 12 12 12 12 12 11 11 10 10 10
-9 -9 -9 -9 -9 -9 -9 -8 -8 -8 -7 -7 -6 -6 -5 -4 -3 -3 -4 -4 -4 -1 5 10 11 10 9 9 9 10 11 12 12 12 12 12 12 12 12 11 11 10 10
-9 -9 -9 -9 -8 -8 -8 -8 -8 -7 -7 -6 -6 -5 -4 -3 -2 -2 -3 -4 -4 -0 6 11 12 10 9 9 10 11 11 12 12 12 12 12 12 12 12 12 11 11 11
-9 -9 -9 -8 -8 -8 -8 -7 -7 -7 -7 -6 -6 -5 -4 -2 -2 -2 -3 -4 -4 -1 7 12 12 10 9 10 10 11 12 12 12 12 12 12 13 13 13 12 11 11 11
-8 -8 -8 -8 -7 -7 -7 -7 -7 -6 -6 -5 -5 -4 -3 -2 -1 -2 -2 -3 -3 1 8 12 12 11 10 10 10 11 12 13 13 13 13 13 13 13 13 12 12 11 11
-8 -8 -8 -7 -7 -6 -6 -6 -6 -6 -5 -4 -4 -3 -2 -2 -2 -2 -2 -3 -1 4 10 12 11 10 10 10 11 12 13 13 13 13 13 13 14 14 13 12 12 11 11
-7 -7 -7 -7 -6 -6 -5 -5 -5 -5 -4 -3 -3 -2 -2 -2 -2 -2 -2 -2 1 7 10 11 10 10 10 11 12 13 13 13 13 13 13 14 14 14 13 12 12 11 11
-6 -6 -6 -6 -6 -5 -5 -5 -4 -4 -4 -3 -3 -2 -2 -3 -3 -3 -2 -1 4 8 10 10 10 11 11 11 12 13 14 14 13 13 13 14 14 14 13 12 12 12 11
-6 -6 -6 -6 -6 -5 -5 -5 -4 -4 -3 -3 -3 -2 -2 -3 -3 -3 -2 1 6 9 10 10 11 11 11 11 12 13 14 14 14 14 14 14 14 14 13 12 12 12 12
-6 -6 -6 -6 -6 -5 -5 -5 -4 -3 -3 -3 -2 -2 -2 -2 -3 -2 -0 4 8 10 10 10 11 11 12 12 12 14 14 15 15 15 14 14 15 15 14 12 12 12 12